Location: Bailleul
(50.3375°N, 2.8513°E)
Time: 20:55:19
(UTC+00:00)

NOSS 3-1 (A) - Pass Details

Date: 19 April 2021
Orbit: 733 x 1479 km, 63.4° (Epoch: 01 May)

Event Time Altitude Azimuth Distance (km) Brightness Sun altitude
Rises 22:56:23 0° 316° (NW) 3,899 7.5 -27.1°
Reaches altitude 10° 22:58:53 10° 314° (NW) 3,039 6.8 -27.2°
Maximum altitude 23:06:15 70° 233° (SW) 1,367 4.0 -27.5°
Enters shadow 23:07:58 56° 178° (S) 1,539 4.1 -27.5°
